Location: Barrio de Buenos Aires
(28.4500°N, 16.2667°W)
Time: 15:09:59
(UTC+00:00)

Cosmos 1842 Rocket - Pass Details

Date: 24 January 2020
Orbit: 606 x 633 km, 82.5° (Epoch: 23 February)

Event Time Altitude Azimuth Distance (km) Brightness Sun altitude
Rises 19:53:45 0° 2° (N) 2,924 6.9 -16.8°
Reaches altitude 10° 19:56:05 10° 9° (N) 2,015 6.0 -17.3°
Maximum altitude 20:00:22 44° 82° (E) 873 3.8 -18.2°
Drops below altitude 10° 20:04:37 10° 155° (SSE) 2,006 6.0 -19.1°
Sets 20:06:56 0° 161° (SSE) 2,909 6.9 -19.6°
